Pittsfield, MA

8:49 PM EST on November 17, 2019 (GMT -0500)
Pittsfield Municipal

Weather History for KPSF - October, 2019

Change the Weather History Date:

Wednesday, October 23, 2019

  Actual Average Record
Temperature  
Mean Temperature 49 °F 45 °F  
Max Temperature 60 °F 56 °F 72 °F (1936)
Min Temperature 38 °F 35 °F 21 °F (1969)
Degree Days  
Heating Degree Days 16 20  
Month to date heating degree days 326 375  
Since 1 July heating degree days 508 667  
Cooling Degree Days 0 0  
Month to date cooling degree days 0 0  
Year to date cooling degree days 416 289  
Moisture  
Dew Point 45 °F    
Average Humidity 76    
Maximum Humidity 96    
Minimum Humidity 37    
Precipitation  
Precipitation 0.29 in 0.13 in 5.90 in (1942)
Month to date precipitation 6.74 3.82  
Year to date precipitation 37.91 37.56  
Sea Level Pressure  
Sea Level Pressure 29.85 in    
Wind  
Wind Speed 6 mph ()    
Max Wind Speed 21 mph    
Max Gust Speed 26 mph    
Visibility 7.8 miles    
Events Rain    
T = Trace of Precipitation, MM = Missing Value Source: Averaged Metar Reports

Daily Weather History Graph

Daily Weather History Graph

Search for Another Location

Airport or City:

Astronomy

Oct. 23, 2019 Rise Set
Actual Time 7:15 AM EDT 5:59 PM EDT
Civil Twilight 6:46 AM EDT 6:27 PM EDT
Nautical Twilight 6:13 AM EDT 7:00 PM EDT
Astronomical Twilight 5:41 AM EDT 7:33 PM EDT
Moon 1:21 AM EDT (10/23) 3:55 PM EDT (10/23)
Length of Visible Light 11h 41m
Length of Day
10h 43m
Waning Crescent, 27% of the Moon is Illuminated
Oct 23
Waning Crescent
Oct 27
New
Nov 4
First Quarter
Nov 12
Full
Nov 19
Last Quarter

Hourly Weather History & Observations

Time (EDT) Temp. Windchill Dew Point Humidity Pressure Visibility Wind Dir Wind Speed Gust Speed Precip Events Conditions
12:54 AM 54.0 °F - 50.0 °F 86% 29.76 in 10.0 mi ESE 9.2 mph - 0.00 in   Overcast
1:12 AM 53.1 °F - 50.0 °F 89% 29.79 in 2.0 mi ESE 6.9 mph - 0.03 in Rain Light Rain
1:27 AM 53.1 °F - 51.1 °F 93% 29.79 in 3.0 mi ESE 4.6 mph - 0.04 in Rain Light Rain
1:54 AM 53.1 °F - 50.0 °F 89% 29.77 in 2.5 mi NW 9.2 mph - 0.10 in Rain Rain
2:16 AM 53.1 °F - 51.1 °F 93% 29.80 in 2.0 mi Calm Calm - 0.08 in Rain Rain
2:27 AM 53.1 °F - 51.1 °F 93% 29.81 in 3.0 mi WNW 3.5 mph - 0.09 in Rain Light Rain
2:35 AM 53.1 °F - 51.1 °F 93% 29.81 in 2.5 mi Calm Calm - 0.10 in Rain Light Rain
2:42 AM 53.1 °F - 51.1 °F 93% 29.80 in 2.0 mi Calm Calm - 0.12 in Rain Light Rain
2:54 AM 53.1 °F - 51.1 °F 93% 29.78 in 3.0 mi Calm Calm - 0.14 in Rain Light Rain
3:23 AM 53.1 °F - 52.0 °F 96% 29.79 in 2.0 mi Calm Calm - 0.03 in Rain Light Rain
3:35 AM 53.1 °F - 48.9 °F 86% 29.81 in 5.0 mi WNW 11.5 mph 20.7 mph 0.04 in Rain Light Rain
3:54 AM 52.0 °F - 48.9 °F 89% 29.78 in 5.0 mi WNW 5.8 mph - 0.05 in Rain Light Rain
4:41 AM 52.0 °F - 48.0 °F 86% 29.80 in 10.0 mi Variable 3.5 mph - 0.00 in   Overcast
4:54 AM 52.0 °F - 48.0 °F 86% 29.77 in 10.0 mi Variable 3.5 mph - 0.00 in   Overcast
5:54 AM 53.1 °F - 48.0 °F 83% 29.77 in 10.0 mi NNW 6.9 mph - N/A   Overcast
6:06 AM 53.1 °F - 48.0 °F 83% 29.79 in 10.0 mi NW 5.8 mph - N/A   Overcast
6:30 AM 51.1 °F - 46.9 °F 86% 29.80 in 10.0 mi NW 8.1 mph - N/A   Mostly Cloudy
6:54 AM 52.0 °F - 46.9 °F 83% 29.78 in 10.0 mi West 6.9 mph - N/A   Overcast
7:54 AM 51.1 °F - 46.0 °F 83% 29.79 in 10.0 mi SW 3.5 mph - N/A   Clear
8:54 AM 52.0 °F - 48.0 °F 86% 29.81 in 10.0 mi WNW 11.5 mph - N/A   Scattered Clouds
9:54 AM 53.1 °F - 48.0 °F 83% 29.83 in 10.0 mi WNW 15.0 mph - N/A   Mostly Cloudy
10:40 AM 55.0 °F - 46.9 °F 74% 29.88 in 10.0 mi WNW 13.8 mph 25.3 mph N/A   Mostly Cloudy
10:54 AM 55.0 °F - 46.9 °F 74% 29.84 in 10.0 mi West 17.3 mph 21.9 mph N/A   Mostly Cloudy
11:02 AM 55.9 °F - 48.0 °F 75% 29.87 in 10.0 mi West 15.0 mph 21.9 mph N/A   Scattered Clouds
11:54 AM 57.0 °F - 41.0 °F 55% 29.85 in 10.0 mi WNW 15.0 mph 20.7 mph N/A   Partly Cloudy
12:54 PM 57.0 °F - 37.9 °F 49% 29.84 in 10.0 mi WNW 10.4 mph 20.7 mph N/A   Clear
1:54 PM 59.0 °F - 37.9 °F 46% 29.85 in 10.0 mi West 17.3 mph 26.5 mph N/A   Partly Cloudy
2:54 PM 55.9 °F - 36.0 °F 47% 29.87 in 10.0 mi West 9.2 mph - N/A   Scattered Clouds
3:54 PM 59.0 °F - 34.0 °F 39% 29.87 in 10.0 mi West 17.3 mph - N/A   Partly Cloudy
4:54 PM 57.9 °F - 34.0 °F 41% 29.89 in 10.0 mi West 15.0 mph - N/A   Mostly Cloudy
5:54 PM 54.0 °F - 36.0 °F 51% 29.94 in 10.0 mi WNW 9.2 mph - N/A   Scattered Clouds
7:54 PM 48.9 °F - 33.1 °F 54% 30.01 in 10.0 mi West 8.1 mph - N/A   Clear
8:54 PM 48.9 °F - 32.0 °F 52% 30.03 in 10.0 mi West 6.9 mph - N/A   Clear
9:54 PM 42.1 °F - 35.1 °F 76% 30.07 in 10.0 mi Calm Calm - N/A   Clear
10:54 PM 41.0 °F - 35.1 °F 79% 30.09 in 10.0 mi Calm Calm - N/A   Clear
11:54 PM 39.9 °F 37.8 °F 34.0 °F 79% 30.10 in 10.0 mi South 3.5 mph - N/A   Clear